Hourly Data Report for October 01, 2014

All times are specified in Local Standard Time (LST). Add 1 hour to adjust for Daylight Saving Time where and when it is observed.

PANGNIRTUNG
NUNAVUT

66°08'36.300" N
65°42'40.500" W
22.60 m
2403049
71826
WXP

Download Data

Hourly Data (October 2014)
Hourly Data Report for October 1, 2014
Temp Definition
°C
Dew Point Temp Definition
°C
Rel Hum Definition
%
Wind Dir Definition
10's deg

Wind Spd Definition
km/h
Visibility Definition
km
Stn Press Definition
kPa
Hmdx Definition


Wind Chill Definition


Weather Definition


TIME
00:00 -2.6 -10.5 55 31 11   100.07   -7 LegendNANA
01:00 -3.0 -11.6 51 21 13   100.13   -8 LegendNANA
02:00 -4.3 -11.5 57 24 13   100.20   -9 LegendNANA
03:00 -4.6 -12.3 55 21 8   100.25   -8 LegendNANA
04:00 -4.2 -11.1 59 31 17   100.32   -10 LegendNANA
05:00 -4.3 -12.6 52 29 13   100.37   -9 LegendNANA
06:00 -4.6 -13.5 50 27 13   100.43   -10 LegendNANA
07:00 -4.8 -13.2 52 27 20   100.49   -11 LegendNANA
08:00 -4.4 -13.3 50 26 22   100.49   -11 LegendNANA
09:00 -4.1 -12.5 52 28 13   100.51   -9 LegendNANA
10:00 -3.7 -12.4 51 30 14   100.53   -9 LegendNANA
11:00 -3.0 -12.2 49 28 16   100.57   -8 LegendNANA
12:00 -2.9 -12.4 48 31 18   100.57   -9 LegendNANA
13:00 -3.0 -12.1 50 31 21   100.62   -9 LegendNANA
14:00 -3.6 -12.8 49 29 19   100.62   -10 LegendNANA
15:00 -3.6 -13.7 45 29 18   100.66   -9 LegendNANA
16:00 -3.8 -13.6 47 31 17   100.71   -10 LegendNANA
17:00 -4.3 -14.0 47 30 18   100.72   -10 LegendNANA
18:00 -4.8 -13.5 50 29 14   100.75   -10 LegendNANA
19:00 -4.9 -13.2 52 27 11   100.77   -9 LegendNANA
20:00 -5.0 -12.8 54 28 18   100.79   -11 LegendNANA
21:00 -5.0 -12.3 57 29 17   100.82   -11 LegendNANA
22:00 -4.9 -12.0 57 27 17   100.83   -11 LegendNANA
23:00 -4.6 -11.8 57 28 13   100.85   -10 LegendNANA

Notes on Data Quality.

Legend

  • E = Estimated
  • M = Missing
  • NA = Not Available
  • ‡ = Partner data that is not subject to review by the National Climate Archives
Date modified: